Tracking 19920 objects as of 15-Oct-2019
HD Live streaming from Space Station
objects crossing your sky now

IRIDIUM 33 DEB

Track IRIDIUM 33 DEB now!
10-day predictions


NORAD ID: 36017
Int'l Code: 1997-051UY
Perigee: 619.3 km
Apogee: 633.5 km
Inclination: 86.4 °
Period: 97.1 minutes
Semi major axis: 6997 km
RCS: 0.003 m2 (small)
Launch date: September 14, 1997
Source: United States (US)
Launch site: TYURATAM MISSILE AND SPACE COMPLEX (TTMTR)

Note: This is SATELLITE DEBRIS
aabbcc
Your satellite tracking list
Your tracking list is empty




NASA's NSSDC Master Catalog

Two Line Element Set (TLE):
1 36017U 97051UY  19287.58562851  .00003169  00000-0  38486-3 0  9997
2 36017  86.3671 225.0972 0010128 267.7365 217.0297 14.83191552539425
Source of the keplerian elements: AFSPC